CAPE
0 0 0 0 0 0 0 0 0 0 0 0 0 0 0 0 0 0 0 0 0 0 0 0 0 0 0 0 0 0 0 0 0 0 0 0 0 0 0 0 0 0 0 0 0 0 0
0 0 0 0 0 0 0 0 0 0 0 0 0 0 0 0 0 0 0 0 0 0 0 0 0 0 0 0 0 0 0 0 0 0 0 0 0 0 0 0 0 0 0 0 0 0 0
0 0 0 0 0 0 0 0 0 0 0 0 0 0 0 0 0 0 0 0 0 0 0 0 0 0 0 0 0 0 0 0 0 0 0 0 0 0 0 0 0 0 0 0 0 0 0
2 0 0 0 0 0 0 0 0 0 0 0 0 0 0 0 0 0 0 0 0 0 0 0 0 0 0 0 0 0 0 0 0 0 0 0 0 0 0 0 0 0 0 0 0 0 0
3 1 0 0 0 0 0 0 0 0 0 0 0 0 0 0 0 0 0 0 0 0 0 0 0 0 0 0 0 0 0 0 0 0 0 0 0 0 0 0 0 0 0 0 0 0 0
0 3 0 0 0 0 0 0 0 0 0 0 0 0 0 0 0 0 0 0 0 0 0 0 0 0 0 0 0 0 0 0 0 0 0 0 0 0 0 0 0 0 0 0 0 0 0
0 0 0 0 0 0 0 0 0 0 0 0 0 0 0 0 0 0 0 0 0 0 0 0 0 0 0 0 0 0 0 0 0 0 0 0 0 0 0 0 0 0 0 0 0 0 0
0 0 0 10 7 7 5 5 0 0 0 0 0 0 0 0 0 0 0 0 0 0 0 0 0 0 0 0 0 0 0 0 0 0 0 0 0 0 0 0 0 0 0 0 0 0 0
0 0 1 0 2 0 0 0 0 0 0 0 0 0 0 0 0 0 0 0 0 0 0 0 0 0 0 0 0 0 0 0 0 0 0 0 0 0 0 0 0 0 0 0 0 0 0
0 0 0 0 0 0 0 0 0 0 0 0 0 0 0 0 0 0 0 0 0 0 0 0 0 0 0 0 0 0 0 0 0 0 0 0 0 0 0 0 0 0 0 0 0 0 0
0 0 0 0 0 0 0 0 0 0 0 0 0 0 0 0 0 0 0 0 0 0 0 0 0 0 0 0 0 0 0 0 0 0 0 0 0 0 0 0 0 0 0 0 0 0 0
0 0 0 0 0 0 0 0 0 0 0 0 0 0 0 0 0 0 0 0 0 0 0 0 0 0 0 0 0 0 0 0 0 0 0 0 0 0 0 0 0 0 0 0 0 0 0
0 0 0 0 0 0 0 0 0 0 0 0 0 0 0 0 0 0 0 0 0 0 0 0 0 0 0 0 0 0 0 0 0 0 0 0 0 0 0 0 0 0 0 0 0 0 0
0 0 0 0 0 0 0 0 0 0 0 0 0 0 0 0 0 0 0 0 0 0 0 0 0 0 0 0 0 0 0 0 0 0 0 0 0 0 0 0 0 0 0 0 0 0 0
0 0 0 0 0 0 0 0 0 0 0 0 0 0 0 0 0 0 0 0 0 0 0 0 0 0 0 0 0 0 0 0 0 0 0 0 0 0 0 0 0 0 0 0 0 0 0
0 0 0 0 0 0 0 0 0 0 0 0 0 0 0 0 0 0 0 0 0 0 0 0 0 0 0 0 0 0 0 0 0 0 0 0 0 0 0 0 0 0 0 0 0 0 0
0 0 0 0 0 0 0 0 0 0 0 0 0 0 0 0 0 0 0 0 0 0 0 0 0 0 0 0 0 0 0 0 0 0 0 0 0 0 0 0 0 0 0 0 0 3 0
0 0 0 0 0 0 0 0 0 0 0 0 0 0 0 0 0 0 0 0 0 0 0 0 0 0 0 0 0 0 0 0 0 0 0 0 0 0 0 0 0 0 0 0 0 0 0
0 0 0 0 0 0 0 0 0 0 0 0 0 0 0 0 0 0 0 0 0 0 0 0 0 0 0 0 0 0 0 0 0 0 0 1 0 0 0 0 0 0 0 0 0 0 0
0 0 0 0 0 0 0 0 0 0 0 0 0 0 0 0 0 0 0 0 0 0 0 0 0 0 0 0 0 0 0 0 0 0 0 3 6 0 0 0 0 1 0 1 0 2 0
0 0 0 0 0 0 0 0 0 0 0 0 0 0 0 0 0 0 0 0 0 0 0 0 0 0 0 0 0 0 0 0 0 0 0 12 3 0 0 0 0 0 0 0 0 0 0
0 0 0 0 0 0 0 0 0 0 0 0 0 0 0 0 0 0 0 0 0 0 0 0 0 0 0 0 0 0 0 0 0 0 0 0 0 0 0 0 0 0 0 0 0 0 0
0 0 0 0 0 0 0 0 0 0 0 0 0 0 0 0 0 0 0 0 0 0 0 0 0 0 0 0 0 0 0 0 0 0 0 0 3 1 0 0 0 0 0 0 0 0 0
0 0 0 0 0 0 0 0 0 0 0 0 0 0 0 0 0 0 0 0 0 0 0 0 0 0 0 0 0 0 0 0 0 0 0 0 0 4 0 0 0 0 0 0 0 0 0
2 2 1 0 0 0 0 0 0 0 0 0 0 0 0 0 0 0 0 0 0 0 0 0 0 0 0 0 0 0 0 0 0 0 0 0 0 3 1 0 0 0 0 0 0 0 0
11 9 8 0 0 0 0 0 0 0 0 0 0 0 0 0 0 0 0 0 0 0 0 0 0 0 0 0 0 0 0 0 0 0 0 0 0 2 0 5 0 0 0 0 0 0 0
15 13 23 5 0 0 0 0 0 0 0 0 0 0 0 0 0 0 0 0 0 0 0 0 0 0 0 0 0 0 0 0 0 0 0 0 0 0 0 0 0 0 0 0 0 0 0
9 15 11 4 1 0 0 0 0 0 0 0 0 0 0 0 0 0 0 0 0 0 0 0 0 0 0 0 0 0 3 0 0 0 0 0 0 0 0 0 0 0 0 0 0 0 0
22 17 16 11 0 0 0 0 0 0 0 0 0 0 0 0 0 0 0 0 0 0 0 0 0 0 0 0 0 0 0 0 0 0 0 0 0 3 0 0 0 0 0 0 0 0 0
CIN
-0 -0 -0 -0 -0 -0 -0 -0 -0 -0 -0 -0 -0 -0 -0 -0 -0 -0 -0 -0 -0 -0 -0 -0 -0 -0 -0 -0 -0 -0 -0 -0 -0 -0 -0 -0 -0 -0 -0 -0 -0 -0 -0 -0 -0 -0 -0
-0 -0 -0 -0 -0 -0 -0 -0 -0 -0 -0 -0 -0 -0 -0 -0 -0 -0 -0 -0 -0 -0 -0 -0 -0 -0 -0 -0 -0 -0 -0 -0 -0 -0 -0 -0 -0 -0 -0 -0 -0 -0 -0 -0 -0 -0 -0
-0 -0 -0 -0 -0 -0 -0 -0 -0 -0 -0 -0 -0 -0 -0 -0 -0 -0 -0 -0 -0 -0 -0 -0 -0 -0 -0 -0 -0 -0 -0 -0 -0 -0 -0 -0 -0 -0 -0 -0 -0 -0 -0 -0 -0 -0 -0
-0 -0 -0 -0 -0 -0 -0 -0 -0 -0 -0 -0 -0 -0 -0 -0 -0 -0 -0 -0 -0 -0 -0 -0 -0 -0 -0 -0 -0 -0 -0 -0 -0 -0 -0 -0 -0 -0 -0 -0 -0 -0 -0 -0 -0 -0 -0
-0 -0 -0 -0 -0 -0 -0 -0 -0 -0 -0 -0 -0 -0 -0 -0 -0 -0 -0 -0 -0 -0 -0 -0 -0 -0 -0 -0 -0 -0 -0 -0 -0 -0 -0 -0 -0 -0 -0 -0 -0 -0 -0 -0 -0 -0 -0
-0 -0 -0 -0 -0 -0 -0 -0 -0 -0 -0 -0 -0 -0 -0 -0 -0 -0 -0 -0 -0 -0 -0 -0 -0 -0 -0 -0 -0 -0 -0 -0 -0 -0 -0 -0 -0 -0 -0 -0 -0 -0 -0 -0 -0 -0 -0
-0 -0 -0 -0 -0 -0 -0 -0 -0 -0 -0 -0 -0 -0 -0 -0 -0 -0 -0 -0 -0 -0 -0 -0 -0 -0 -0 -0 -0 -0 -0 -0 -0 -0 -0 -0 -0 -0 -0 -0 -0 -0 -0 -0 -0 -0 -0
-0 -0 -1 -6 -9 -8 -11 -14 -0 -0 -0 -0 -0 -0 -0 -0 -0 -0 -0 -0 -0 -0 -0 -0 -0 -0 -0 -0 -0 -0 -0 -0 -0 -0 -0 -0 -0 -0 -0 -0 -0 -0 -0 -0 -0 -0 -0
-0 -0 -8 -7 -27 -12 -0 -0 -0 -0 -0 -0 -0 -0 -0 -0 -0 -0 -0 -0 -0 -0 -0 -0 -0 -0 -0 -0 -0 -0 -0 -0 -0 -0 -0 -0 -0 -0 -0 -0 -0 -0 -0 -0 -0 -0 -0
-0 -0 -0 -0 -0 -0 -0 -0 -0 -0 -0 -0 -0 -0 -0 -0 -0 -0 -0 -0 -0 -0 -0 -0 -0 -0 -0 -0 -0 -0 -0 -0 -0 -0 -0 -0 -0 -0 -0 -0 -0 -0 -0 -0 -0 -0 -0
-0 -0 -0 -0 -0 -0 -0 -0 -0 -0 -0 -0 -0 -0 -0 -0 -0 -0 -0 -0 -0 -0 -0 -0 -0 -0 -0 -0 -0 -0 -0 -0 -0 -0 -0 -0 -0 -0 -0 -0 -0 -0 -0 -0 -0 -0 -0
-0 -0 -0 -0 -0 -0 -0 -0 -0 -0 -0 -0 -0 -0 -0 -0 -0 -0 -0 -0 -0 -0 -0 -0 -0 -0 -0 -0 -0 -0 -0 -0 -0 -0 -0 -0 -0 -0 -0 -0 -0 -0 -0 -0 -0 -0 -0
-0 -0 -0 -0 -0 -0 -0 -0 -0 -0 -0 -0 -0 -0 -0 -0 -0 -0 -0 -0 -0 -0 -0 -0 -0 -0 -0 -0 -0 -0 -0 -0 -0 -0 -0 -0 -0 -0 -0 -0 -0 -0 -0 -0 -0 -0 -0
-0 -0 -0 -0 -0 -0 -0 -0 -0 -0 -0 -0 -0 -0 -0 -0 -0 -0 -0 -0 -0 -0 -0 -0 -0 -0 -0 -0 -0 -0 -0 -0 -0 -0 -0 -0 -0 -0 -0 -0 -0 -0 -0 -0 -0 -0 -0
-0 -0 -0 -0 -0 -0 -0 -0 -0 -0 -0 -0 -0 -0 -0 -0 -0 -0 -0 -0 -0 -0 -0 -0 -0 -0 -0 -0 -0 -0 -0 -0 -0 -0 -0 -0 -0 -0 -0 -0 -0 -0 -0 -0 -0 -0 -0
-0 -0 -0 -0 -0 -0 -0 -0 -0 -0 -0 -0 -0 -0 -0 -0 -0 -0 -0 -0 -0 -0 -0 -0 -0 -0 -0 -0 -0 -0 -0 -0 -0 -0 -0 -0 -0 -0 -0 -0 -0 -0 -0 -0 -0 -0 -0
-0 -0 -0 -0 -0 -0 -0 -0 -0 -0 -0 -0 -0 -0 -0 -0 -0 -0 -0 -0 -0 -0 -0 -0 -0 -0 -0 -0 -0 -0 -0 -0 -0 -0 -0 -0 -0 -0 -0 -0 -0 -0 -0 -0 -0 -10 -0
-0 -0 -0 -0 -0 -0 -0 -0 -0 -0 -0 -0 -0 -0 -0 -0 -0 -0 -0 -0 -0 -0 -0 -0 -0 -0 -0 -0 -0 -0 -0 -0 -0 -0 -0 -0 -0 -0 -0 -0 -0 -0 -0 -0 -0 -0 -0
-0 -0 -0 -0 -0 -0 -0 -0 -0 -0 -0 -0 -0 -0 -0 -0 -0 -0 -0 -0 -0 -0 -0 -0 -0 -0 -0 -0 -0 -0 -0 -0 -0 -0 -0 -1 -0 -0 -0 -0 -0 -0 -0 -0 -0 -0 -0
-0 -0 -0 -0 -0 -0 -0 -0 -0 -0 -0 -0 -0 -0 -0 -0 -0 -0 -0 -0 -0 -0 -0 -0 -0 -0 -0 -0 -0 -0 -0 -0 -0 -0 -0 -1 -4 -0 -0 -0 -4 -4 -0 -1 -0 -1 -0
-0 -0 -0 -0 -0 -0 -0 -0 -0 -0 -0 -0 -0 -0 -0 -0 -0 -0 -0 -0 -0 -0 -0 -0 -0 -0 -0 -0 -0 -0 -0 -0 -0 -0 -0 -4 -1 -5 -0 -0 -0 -0 -0 -0 -0 -0 -0
-0 -0 -0 -0 -0 -0 -0 -0 -0 -0 -0 -0 -0 -0 -0 -0 -0 -0 -0 -0 -0 -0 -0 -0 -0 -0 -0 -0 -0 -0 -0 -0 -0 -0 -0 -0 -0 -0 -0 -0 -0 -0 -0 -0 -0 -0 -0
-0 -0 -0 -0 -0 -0 -0 -0 -0 -0 -0 -0 -0 -0 -0 -0 -0 -0 -0 -0 -0 -0 -0 -0 -0 -0 -0 -0 -0 -0 -0 -0 -0 -0 -0 -0 -0 -0 -0 -0 -0 -0 -0 -0 -0 -0 -0
-0 -0 -0 -0 -0 -0 -0 -0 -0 -0 -0 -0 -0 -0 -0 -0 -0 -0 -0 -0 -0 -0 -0 -0 -0 -0 -0 -0 -0 -0 -0 -0 -0 -0 -0 -0 -0 -0 -0 -2 -0 -0 -0 -0 -0 -0 -0
-0 -0 -0 -0 -0 -0 -0 -0 -0 -0 -0 -0 -0 -0 -0 -0 -0 -0 -0 -0 -0 -0 -0 -0 -0 -0 -0 -0 -0 -0 -0 -0 -0 -0 -0 -0 -0 -15 -6 -0 -0 -0 -0 -0 -0 -0 -0
-0 -0 -0 -0 -0 -0 -0 -0 -0 -0 -0 -0 -0 -0 -0 -0 -0 -0 -0 -0 -0 -0 -0 -0 -0 -0 -0 -0 -0 -0 -0 -0 -0 -0 -0 -0 -0 -9 -2 -16 -0 -0 -0 -0 -0 -0 -0
-0 -0 -0 -0 -0 -0 -0 -0 -0 -0 -0 -0 -0 -0 -0 -0 -0 -0 -0 -0 -0 -0 -0 -0 -0 -0 -0 -0 -0 -0 -0 -0 -0 -1 -0 -0 -0 -0 -0 -0 -0 -0 -0 -0 -0 -0 -0
-0 -0 -0 -0 -0 -0 -0 -0 -0 -0 -0 -0 -0 -0 -0 -0 -0 -0 -0 -0 -0 -0 -0 -0 -0 -0 -0 -0 -0 -2 -2 -0 -0 -0 -0 -0 -0 -0 -0 -0 -0 -0 -0 -0 -0 -0 -0
-0 -0 -0 -0 -0 -0 -0 -0 -0 -0 -0 -0 -0 -0 -0 -0 -0 -0 -0 -0 -0 -0 -0 -0 -0 -0 -0 -0 -0 -0 -0 -0 -0 -0 -0 -0 -0 -8 -0 -0 -0 -0 -0 -0 -0 -0 -0
Wind_Speed
13 14 14 14 14 15 15 15 16 16 16 17 18 20 23 25 29 31 33 34 33 31 26 23 21 19 15 17 17 18 18 18 18 18 18 18 18 18 18 18 19 16 18 20 20 22 20
14 14 13 13 15 16 16 17 17 17 19 20 21 22 23 26 30 32 33 34 31 27 22 21 19 16 15 17 18 18 18 19 18 18 19 18 17 18 18 18 18 19 20 22 23 24 20
11 11 12 12 14 15 16 18 20 21 21 21 23 24 24 25 29 31 34 34 29 23 22 20 19 16 17 16 18 18 19 17 18 18 17 18 18 19 19 20 20 21 24 25 18 23 23
12 13 14 15 17 18 20 21 22 22 23 25 27 28 29 31 28 31 33 31 25 23 21 20 19 17 17 16 17 19 20 19 19 18 18 19 19 19 19 21 23 23 22 24 20 28 24
16 17 18 18 19 21 23 24 25 26 28 29 31 32 34 36 34 30 32 27 22 22 21 20 18 17 16 17 19 20 19 19 20 20 19 20 20 20 21 24 25 24 27 27 30 27 26
18 18 19 20 22 23 24 26 27 29 31 32 33 33 34 35 34 31 29 22 21 23 21 18 19 17 19 20 20 21 20 20 19 21 19 21 21 23 23 26 32 32 34 32 34 30 38
18 18 19 21 22 24 25 27 29 31 32 34 35 35 34 35 33 36 33 20 22 19 26 20 19 18 19 22 18 19 20 19 19 21 23 23 27 28 29 29 30 32 34 38 36 36 38
18 19 20 21 23 25 26 28 30 31 32 34 35 35 34 33 26 33 33 26 23 16 17 19 18 18 17 19 19 21 21 21 23 25 24 27 25 30 29 29 31 33 39 41 40 33 41
19 20 21 22 24 25 27 29 30 32 33 33 34 35 34 33 19 25 31 29 20 19 17 18 18 19 18 19 20 20 22 23 24 26 28 30 27 30 32 33 36 35 38 41 43 44 38
20 21 22 23 24 26 28 30 31 32 33 33 33 34 35 33 20 23 24 31 23 17 18 18 18 18 19 18 20 19 22 25 24 29 30 26 26 34 36 35 34 38 35 40 45 48 50
20 20 22 23 25 27 29 30 31 32 33 33 33 33 33 27 20 24 24 31 19 16 22 17 17 17 19 21 23 24 24 24 27 29 27 29 33 36 35 33 31 33 34 40 42 44 45
20 20 22 24 26 28 30 31 32 32 32 32 32 30 29 23 21 24 30 21 18 20 22 17 18 20 24 25 25 26 25 26 24 26 27 26 30 29 29 25 31 37 38 42 38 40 49
19 21 23 25 27 29 30 31 32 33 33 33 31 29 23 21 26 27 24 19 23 22 19 21 21 24 23 27 27 29 28 32 32 39 36 37 30 23 30 32 31 39 48 54 53 51 54
19 21 22 25 27 29 31 32 32 33 33 32 30 24 23 23 28 27 22 22 23 21 21 22 24 25 24 29 28 31 30 33 34 32 36 38 40 31 33 33 39 37 38 44 57 60 62
19 20 22 24 27 29 31 32 33 34 34 30 23 21 21 28 30 24 23 24 22 22 20 24 25 26 24 25 29 33 31 30 31 33 35 39 37 29 36 33 33 38 39 36 44 47 55
18 20 22 24 26 29 31 32 33 34 34 26 22 22 24 32 28 23 22 21 20 20 22 23 26 25 28 31 33 33 31 28 29 31 30 33 46 33 31 32 30 39 36 41 37 53 60
17 19 21 23 26 29 30 31 32 33 33 22 23 23 25 32 23 23 23 21 18 21 23 24 24 27 27 31 30 31 29 28 30 33 30 33 35 38 38 38 45 38 36 32 36 38 50
16 18 20 23 26 28 30 30 31 32 32 24 22 25 26 27 23 21 22 20 19 23 25 24 23 25 27 30 32 31 31 29 31 33 36 33 36 46 47 37 31 27 29 35 45 47 42
14 16 20 22 24 26 27 28 30 30 28 22 23 23 23 22 23 22 19 21 21 24 25 25 25 26 27 30 34 29 30 27 33 34 39 37 38 52 49 35 28 36 38 34 36 37 43
12 15 18 20 23 24 26 28 29 29 24 20 22 25 24 23 20 21 21 22 21 23 23 24 26 26 30 32 29 33 34 30 37 38 40 34 36 41 50 47 41 46 42 38 37 40 41
11 12 15 18 21 23 25 27 29 28 21 20 23 21 20 25 24 22 21 23 25 26 24 25 27 28 31 34 37 36 33 39 36 36 29 31 42 39 40 39 40 43 44 41 34 30 33
8 11 14 17 19 22 25 27 28 27 19 20 22 21 21 21 21 23 24 24 25 25 25 27 29 31 32 34 36 44 40 40 41 37 35 32 43 39 48 41 38 40 37 33 30 27 24
9 10 12 16 19 21 24 26 26 26 19 19 18 18 20 21 22 24 24 23 24 26 26 25 29 33 35 34 33 34 35 35 37 41 41 38 40 40 49 38 37 39 28 25 24 21 22
8 8 12 14 17 20 22 24 24 24 20 17 17 18 22 25 23 24 23 24 25 26 27 28 28 31 29 31 34 36 37 36 34 32 28 32 31 31 39 36 39 26 25 23 23 23 17
7 9 11 13 16 18 20 21 22 21 21 18 18 19 21 26 23 23 24 25 26 26 28 29 28 27 29 34 41 44 43 39 34 28 30 20 24 29 31 33 32 28 22 23 23 23 18
8 9 8 11 14 16 18 19 20 19 19 18 20 18 20 23 24 20 25 26 29 29 31 27 28 28 30 34 37 43 46 39 38 36 28 28 22 26 29 31 32 22 23 28 20 22 19
8 10 7 9 12 13 15 17 19 19 18 18 20 20 19 22 20 20 24 26 24 27 30 30 30 31 28 33 37 38 39 31 37 35 34 33 32 29 30 28 21 22 30 21 18 19 30
6 6 5 7 8 12 14 16 18 19 17 18 19 22 19 20 20 22 22 24 25 27 32 29 34 30 30 33 34 34 35 32 32 30 34 36 29 28 22 22 19 19 32 24 27 33 28
2 3 4 6 9 11 14 15 18 19 18 18 19 21 22 21 21 21 24 22 22 22 25 26 28 28 27 31 30 31 34 35 36 38 25 28 20 22 22 18 30 39 32 36 34 31 27
Wind_Direction
293 302 304 302 304 306 310 313 315 313 309 308 307 308 309 310 313 315 315 314 314 318 331 339 344 344 0 349 349 0 4 2 2 3 0 358 358 356 350 351 347 347 344 339 338 335 334
297 298 296 298 308 316 318 315 313 313 315 316 315 314 314 314 317 318 318 316 321 334 349 350 348 352 354 342 354 359 359 0 4 2 1 1 359 356 349 350 346 344 338 333 334 334 337
241 266 284 291 304 310 312 316 320 320 319 318 319 318 315 315 316 317 320 323 330 352 359 358 355 2 355 353 359 1 359 5 2 3 359 360 356 351 351 345 347 340 332 330 341 339 337
278 297 303 309 316 319 324 323 322 323 324 324 324 323 323 323 316 318 319 321 347 353 3 2 1 4 354 5 9 357 353 357 357 359 360 355 353 351 349 343 338 336 337 333 336 332 336
326 344 337 332 327 330 334 335 332 331 332 329 328 329 330 331 327 318 320 355 9 10 9 3 4 5 358 1 357 353 356 352 350 353 356 354 353 349 346 339 334 337 328 326 325 332 331
351 357 352 351 347 343 343 342 341 339 338 333 330 328 330 333 336 326 323 30 21 21 15 21 12 0 356 345 346 345 355 354 355 352 359 355 349 343 341 338 325 325 322 322 320 325 319
347 345 351 357 356 349 348 348 346 343 340 336 334 335 334 338 349 352 1 37 29 29 6 17 14 11 360 348 10 358 0 2 3 358 348 349 340 334 334 333 328 324 321 318 319 322 320
346 343 351 9 -0 354 350 348 347 347 345 342 339 336 333 329 17 8 15 35 41 42 39 32 28 21 23 16 12 4 7 2 354 346 347 342 336 338 337 335 330 326 321 319 323 327 322
354 358 360 0 358 358 359 356 349 346 345 343 341 338 330 327 29 23 19 20 31 31 39 37 31 24 19 14 10 360 1 356 350 345 341 336 335 338 335 333 329 327 324 322 320 323 322
356 359 3 4 4 0 357 353 350 348 346 343 342 339 336 335 21 17 17 355 8 29 21 23 25 21 15 9 5 4 358 353 348 340 341 341 343 336 332 330 332 324 329 325 321 321 318
355 358 2 3 1 357 356 353 350 348 345 344 345 346 345 8 20 12 6 347 18 29 353 19 22 15 7 4 354 352 355 352 342 340 342 337 335 334 333 333 335 329 332 327 323 319 319
355 357 358 357 356 353 352 351 351 349 349 347 348 352 357 13 18 9 354 10 22 360 348 5 7 3 355 353 351 348 352 355 352 345 341 340 341 340 341 341 341 336 331 326 324 321 315
352 352 352 354 355 353 354 352 350 348 347 346 346 354 13 19 357 1 6 15 353 349 0 354 352 350 351 346 345 345 346 347 342 334 334 335 340 347 346 335 336 336 331 321 318 317 314
349 350 351 352 353 354 353 352 350 349 346 345 349 1 7 8 356 2 10 359 345 351 350 351 348 347 346 345 343 342 342 337 344 342 334 333 329 338 343 341 334 335 336 324 316 316 314
345 346 347 349 353 353 354 353 351 348 345 349 5 11 8 353 349 1 358 346 347 351 355 349 347 344 345 347 344 341 343 341 345 346 336 331 329 337 336 338 339 333 331 329 318 314 314
343 345 346 347 349 351 350 351 348 346 348 3 4 3 1 344 352 2 355 348 353 359 354 351 343 347 339 339 338 340 339 344 341 346 344 334 324 334 337 338 337 332 330 327 325 319 316
342 343 345 347 346 348 349 348 347 344 349 15 2 354 360 341 2 0 348 352 359 357 356 351 346 339 340 339 339 338 337 341 341 340 341 336 328 326 329 328 325 329 329 330 326 321 316
339 342 345 346 345 346 346 348 350 346 344 2 1 347 354 350 355 359 351 353 358 350 349 347 348 344 341 341 337 336 335 338 346 342 336 336 327 321 321 327 327 329 331 331 322 318 316
341 344 345 347 348 348 350 353 350 351 358 355 350 350 0 2 349 352 359 353 354 349 349 348 344 344 342 338 335 337 336 341 343 341 336 335 328 324 324 333 338 327 324 326 324 320 314
335 341 346 348 350 350 350 348 346 350 4 6 354 345 355 7 11 356 351 348 347 351 348 347 343 344 339 336 337 331 331 334 334 330 328 325 319 316 315 317 322 320 320 321 319 315 316
329 342 350 351 352 348 349 347 345 350 5 2 353 353 359 342 348 350 349 345 341 340 345 345 341 341 338 333 331 328 332 328 329 329 335 331 318 318 316 317 318 316 317 318 315 312 313
323 333 343 347 348 348 346 346 346 352 6 355 344 345 353 349 350 344 342 341 339 341 340 338 336 335 334 329 327 324 327 328 325 326 324 325 317 321 316 320 320 319 321 317 317 318 316
305 322 334 340 342 345 346 349 351 351 356 352 354 355 349 345 342 339 337 339 341 341 339 336 335 332 329 330 331 328 326 323 319 318 318 316 315 318 315 324 326 324 331 332 334 333 331
292 316 326 340 342 345 346 351 352 352 355 353 353 354 343 334 336 336 338 339 337 337 333 335 338 333 336 335 329 326 323 322 323 323 321 321 322 320 318 327 322 335 338 334 332 338 338
277 303 324 339 342 344 347 354 357 358 359 359 354 350 342 332 334 333 332 332 335 337 334 333 336 338 339 335 329 327 329 331 335 343 341 330 329 327 325 324 325 334 347 351 347 344 351
264 295 321 335 339 343 351 355 357 360 3 3 358 358 349 337 331 342 333 333 330 332 333 335 339 340 338 334 331 327 327 330 330 333 345 349 336 326 324 322 326 345 348 341 346 341 347
276 291 312 332 340 348 354 355 355 357 358 357 356 356 351 342 342 344 335 334 338 335 332 332 335 336 341 334 330 329 327 332 330 330 332 333 332 325 325 318 326 343 339 343 347 337 290
278 285 321 341 352 349 354 355 354 356 356 354 360 358 354 347 343 338 339 336 335 334 332 337 335 340 337 332 331 331 328 332 330 330 329 325 326 324 329 330 329 349 326 342 306 281 269
281 300 335 353 345 350 353 354 353 355 355 354 350 353 351 348 342 339 333 333 330 333 337 339 335 335 337 334 332 332 327 326 323 324 337 329 331 326 325 314 316 303 302 282 277 266 256